Location: Newark
(34.0131°N, 4.3314°W)
Time: 05:50:04
(UTC+00:00)

A-11 Canister half - Pass Details

Date: 26 October 2019
Orbit: 1514 x 1685 km, 47.2° (Epoch: 20 November)

Event Time Altitude Azimuth Distance (km) Brightness Sun altitude
Rises 07:45:01 0° 304° (WNW) 4,788 10.9 13.5°
Reaches altitude 10° 07:48:12 10° 300° (WNW) 3,777 10.5 14.1°
Maximum altitude 07:57:27 58° 225° (SW) 1,754 9.5 15.8°
Drops below altitude 10° 08:06:26 10° 149° (SSE) 3,670 12.2 17.5°
Sets 08:09:30 0° 145° (SE) 4,643 12.7 18.0°
